Weather in Volochayevka-2

Russia / Jewish Autonomous Oblast     48°33′53″N   134°34′40″E
temp.,
°C
wind,
m/s
gust,
m/s
humid.,
%
clouds,
%
prec.,
mm/h
press.,
hPa
HPBL,
m
12 may, wed
wed1201:00+5se00895 0.0 101810
04:00+5ese228920 0.0 101810
07:00+6ese247740 0.0 1017115
10:00+11ese3558100 0.0 1015468
13:00+16se5746100 0.0 10121755
16:00+15s61055100 0.0 10101597
19:00+10s61293100 6.0 10101180
22:00+10s81477100 9.4 1009812
13 may, thu
thu1301:00+8s71386100 0.0 1009586
04:00+9s7158597 0.4 1007665
07:00+9s8148222 0.1 1006657
10:00+14ssw81362100 0.3 10051709
13:00+15wsw795584 0.3 10051675
16:00+16sw785151 0.4 10051618
19:00+14wsw356690 0.1 1006300
22:00+11w238382 0.4 100764
14 may, fri
fri1401:00+9wsw37915 0.0 1008127
04:00+7wsw369398 0.0 1008124
07:00+9w25865 0.0 1010155
10:00+15wnw45600 0.0 1011892
13:00+19wnw35444 0.0 10101222
16:00+20nw2339100 0.0 10091395
19:00+18e3453100 0.0 100858
22:00+15ese51060100 0.0 1007187
15 may, sat
sat1501:00+14se41260100 0.0 1005253
04:00+16s91850100 0.0 1003932
07:00+14s71673100 0.0 1002850
10:00+12s81691100 1.7 1000998
13:00+14wsw71289100 2.9 999716
16:00+16wsw81159100 2.9 10001562
19:00+16sw8135046 0.0 1000898
22:00+12wsw4961100 0.0 1002205
16 may, sun
sun1601:00+11w814615 0.0 1002773
04:00+9wsw613762 0.0 1002572
07:00+10wsw712765 0.0 1003877
10:00+13w8116098 0.2 10031602
13:00+15wnw8115486 0.8 10021819
16:00+16wnw71151100 1.4 10022082
19:00+15nw711555 0.0 10021259
22:00+11w512690 0.0 1004306